STARLINK-36375, 67920

Orbit data source: Space-Track

STARLINK-36375, 67920 is a payload satellite owned by SpaceX/Seattle (US) in LEO that was launched on Sun, 22 Feb 2026 UTC via an FALCON 9 launch vehicle from the Air Force Eastern Test Range (AFETR). Payload-class satellites include a variety of spacecraft equipped with specific instruments for various scientific and technological missions. These include communications satellites like Starlink; space stations such as the ISS; scientific satellites like the Hubble; Earth observation satellites from companies like Planet Labs, Umbra, and HawkEye 360; GPS; miniature CubeSats for education and research; and military/defense satellites.

Loading next visibility...
Identifier
67920, 2026-036S
Orbit
LEO
Country
Flag of USUS
Related business
Manufacturer
SpaceX/Seattle
Mission
Operational spacecraft
Bus & Motor
STARLINK V2MO, Unknown motor
Mass
575 kg wet, ~530 kg dry
Launch date (UTC)
2026-02-22 (2 months ago)
Launch vehicle
FALCON 9
Launch site
Air Force Eastern Test Range (AFETR)
Object type
Payload
Rocket body
Debris
Shape & HBR
Unknown shape, 17.7 m
Radar Cross Section
RCS unknown

Expand to show TLE details & history
Last TLE update: 11 hours ago

TLE from 11 hours ago
0 STARLINK-36375
1 67920U 26036S   26104.23007591  .00008802  00000-0  32896-3 0  9990
2 67920  43.0027  44.8847 0001532 253.6103 106.4581 15.27583504  9158
Epoch: 2026-04-14T05:31Z
TLE epoch observation values (Epoch: 2026-04-14T05:31:18.558Z)
Latitude
0.00002°
Longitude
119.64809°
Altitude
483.112 km
Speed
7.625 km/s
True Right ascension
02h 59m 32s
True Declination
0° 00' 00"
Sunlit
Object was in daylight at epoch
Visualization orbit readout
Latitude
Unknown
Longitude
Unknown
Altitude
Unknown
Speed
Unknown
Apparent Right ascension
Unknown
Apparent Declination
Unknown
Sunlit
N/A
Visualization observer readout
Local Sidereal Time
23:08:51
Azimuth
Unknown
Elevation
Unknown
Doppler factor
Unknown
Orbital elements
Apogee altitude
486.035 km
Perigee altitude
483.932 km
Semi-major axis
6,863.12 km
Eccentricity
0.00015
Inclination
43.0027°
RAAN
44.8847°
Arg. of periapsis
253.6103°
True anomaly
106.47494°
Mean anomaly
106.4581°
Eccentric anomaly
106.46652°
Mean motion
3.81734 °/min
Orbital period
94.31 mins
BSTAR
0.00032896
Loading maneuver chart data...
Computing Atmospheric mass density...
Loading historical data...
Loading historical data...
Loading historical data...
Loading historical data...
Loading historical data...
Loading historical data...
Loading historical data...

Documentation

Showing up to 5 results
|